WGN618 KGEG-KDEN

Flight info

Callsign WGN618
Flight time 1h 42m
Altitude 35000
Route GEG DLN TOFUU FLATI5
Aircraft MD1F/H-SDE1E2E3FGHIJ2J3J4J5M1RWXY/LB1D1

Departure

Time 2026-04-22 22:03
Airport Spokane International Airport (KGEG)

Arrival

Time 2026-04-22 23:45
Airport Denver International Airport (KDEN)
Time Latitude Longitude Altitude Speed Heading
2026-04-22 21:39 47.62710 -117.51912 2348 ft 0 kts 110°
2026-04-22 21:56 47.62711 -117.51916 2348 ft 3 kts 110°
2026-04-22 21:56 47.62719 -117.51947 2348 ft 1 kts 110°
2026-04-22 21:56 47.62723 -117.51964 2348 ft 1 kts 106°
2026-04-22 21:57 47.62725 -117.51976 2348 ft 1 kts 94°
2026-04-22 21:57 47.62725 -117.51989 2348 ft 1 kts 76°
2026-04-22 21:57 47.62722 -117.51999 2348 ft 1 kts 60°
2026-04-22 21:57 47.62719 -117.52007 2348 ft 0 kts 45°
2026-04-22 21:58 47.62714 -117.52013 2348 ft 1 kts 30°
2026-04-22 21:58 47.62708 -117.52017 2348 ft 0 kts 21°
2026-04-22 21:58 47.62707 -117.52018 2348 ft 0 kts 20°
2026-04-22 22:00 47.62720 -117.52010 2348 ft 3 kts 20°
2026-04-22 22:00 47.62754 -117.51993 2347 ft 6 kts 20°
2026-04-22 22:00 47.62800 -117.51954 2346 ft 9 kts 38°
2026-04-22 22:01 47.62858 -117.51875 2342 ft 13 kts 46°
2026-04-22 22:01 47.62929 -117.51768 2337 ft 13 kts 46°
2026-04-22 22:01 47.62997 -117.51708 2333 ft 13 kts 349°
2026-04-22 22:01 47.63072 -117.51781 2332 ft 11 kts 316°
2026-04-22 22:02 47.63083 -117.51874 2334 ft 8 kts 240°
2026-04-22 22:02 47.63052 -117.51929 2337 ft 6 kts 228°
2026-04-22 22:02 47.63002 -117.52008 2339 ft 26 kts 226°
2026-04-22 22:02 47.62703 -117.52457 2354 ft 96 kts 226°
2026-04-22 22:03 47.62078 -117.53391 2369 ft 157 kts 226°
2026-04-22 22:03 47.61218 -117.54684 2546 ft 188 kts 225°
2026-04-22 22:03 47.60363 -117.55956 3337 ft 180 kts 228°
2026-04-22 22:03 47.59590 -117.57266 4011 ft 178 kts 237°
2026-04-22 22:04 47.58870 -117.58620 4619 ft 182 kts 231°
2026-04-22 22:04 47.58029 -117.59936 5166 ft 189 kts 220°
2026-04-22 22:04 47.56810 -117.60531 5741 ft 194 kts 182°
2026-04-22 22:04 47.55460 -117.60014 6014 ft 206 kts 146°
2026-04-22 22:05 47.54510 -117.58453 6287 ft 212 kts 112°
2026-04-22 22:05 47.54022 -117.56400 6561 ft 218 kts 104°
2026-04-22 22:05 47.53342 -117.54344 6935 ft 222 kts 129°
2026-04-22 22:05 47.52358 -117.52564 7294 ft 227 kts 131°
2026-04-22 22:06 47.51407 -117.50712 7691 ft 231 kts 121°
2026-04-22 22:06 47.50534 -117.48641 7857 ft 249 kts 122°
2026-04-22 22:06 47.49572 -117.46370 7900 ft 265 kts 122°
2026-04-22 22:06 47.48569 -117.44035 7721 ft 273 kts 123°
2026-04-22 22:07 47.47558 -117.41685 7706 ft 274 kts 122°
2026-04-22 22:07 47.46527 -117.39301 7744 ft 274 kts 120°
2026-04-22 22:07 47.45493 -117.36892 7770 ft 274 kts 120°
2026-04-22 22:07 47.44477 -117.34503 7798 ft 274 kts 121°
2026-04-22 22:08 47.43469 -117.32132 7832 ft 274 kts 122°
2026-04-22 22:08 47.42463 -117.29771 7860 ft 274 kts 123°
2026-04-22 22:08 47.41446 -117.27385 7901 ft 274 kts 123°
2026-04-22 22:08 47.40429 -117.25000 7939 ft 275 kts 122°
2026-04-22 22:09 47.39414 -117.22613 7970 ft 275 kts 123°
2026-04-22 22:09 47.38384 -117.20205 8023 ft 276 kts 122°
2026-04-22 22:09 47.37340 -117.17807 8062 ft 279 kts 122°
2026-04-22 22:09 47.36274 -117.15334 8112 ft 283 kts 122°
2026-04-22 22:10 47.35205 -117.12869 8137 ft 287 kts 123°
2026-04-22 22:10 47.34094 -117.10324 8257 ft 300 kts 121°
2026-04-22 22:10 47.32961 -117.07676 8940 ft 309 kts 121°
2026-04-22 22:10 47.31786 -117.04975 9644 ft 319 kts 119°
2026-04-22 22:11 47.30557 -117.02150 10377 ft 329 kts 121°
2026-04-22 22:11 47.29282 -116.99200 10783 ft 352 kts 120°
2026-04-22 22:11 47.27924 -116.96036 11146 ft 376 kts 121°
2026-04-22 22:11 47.26485 -116.92722 11575 ft 396 kts 120°
2026-04-22 22:12 47.24985 -116.89266 12286 ft 407 kts 121°
2026-04-22 22:12 47.23520 -116.85848 13079 ft 414 kts 119°
2026-04-22 22:12 47.22076 -116.82510 13897 ft 417 kts 119°
2026-04-22 22:12 47.20672 -116.79226 14723 ft 420 kts 118°
2026-04-22 22:13 47.19264 -116.75905 15492 ft 425 kts 118°
2026-04-22 22:13 47.17809 -116.72530 16265 ft 428 kts 121°
2026-04-22 22:13 47.16338 -116.69148 17049 ft 431 kts 119°
2026-04-22 22:13 47.14897 -116.65824 17725 ft 436 kts 121°
2026-04-22 22:14 47.13445 -116.62458 18474 ft 438 kts 118°
2026-04-22 22:14 47.12023 -116.59122 19185 ft 441 kts 119°
2026-04-22 22:14 47.10610 -116.55799 19883 ft 444 kts 119°
2026-04-22 22:14 47.09108 -116.52303 20581 ft 448 kts 119°
2026-04-22 22:15 47.07639 -116.48885 21266 ft 452 kts 119°
2026-04-22 22:15 47.06105 -116.45296 21975 ft 455 kts 119°
2026-04-22 22:15 47.04580 -116.41711 22635 ft 459 kts 119°
2026-04-22 22:15 47.03023 -116.38046 23274 ft 463 kts 120°
2026-04-22 22:16 47.01451 -116.34359 23888 ft 466 kts 120°
2026-04-22 22:16 46.99845 -116.30627 24543 ft 468 kts 119°
2026-04-22 22:16 46.98250 -116.26880 25172 ft 471 kts 118°
2026-04-22 22:16 46.96650 -116.23083 25862 ft 473 kts 120°
2026-04-22 22:17 46.95061 -116.19349 26514 ft 476 kts 120°
2026-04-22 22:17 46.93312 -116.15398 27156 ft 479 kts 122°
2026-04-22 22:17 46.91485 -116.11384 27778 ft 483 kts 122°
2026-04-22 22:17 46.89605 -116.07264 28409 ft 486 kts 120°
2026-04-22 22:18 46.87717 -116.03088 29029 ft 489 kts 121°
2026-04-22 22:18 46.85854 -115.98946 29788 ft 488 kts 121°
2026-04-22 22:18 46.84069 -115.94974 30556 ft 485 kts 121°
2026-04-22 22:18 46.82302 -115.91034 31251 ft 483 kts 121°
2026-04-22 22:19 46.80609 -115.87233 31905 ft 480 kts 119°
2026-04-22 22:19 46.78888 -115.83380 32498 ft 478 kts 120°
2026-04-22 22:19 46.77148 -115.79501 33100 ft 474 kts 121°
2026-04-22 22:19 46.75426 -115.75656 33630 ft 472 kts 120°
2026-04-22 22:20 46.73810 -115.72016 34114 ft 470 kts 120°
2026-04-22 22:20 46.72169 -115.68331 34521 ft 468 kts 120°
2026-04-22 22:20 46.70496 -115.64583 34688 ft 465 kts 120°
2026-04-22 22:21 46.67165 -115.57096 34661 ft 461 kts 121°
2026-04-22 22:21 46.63934 -115.49832 34699 ft 462 kts 120°
2026-04-22 22:22 46.60683 -115.42505 34744 ft 464 kts 120°
2026-04-22 22:22 46.57428 -115.35155 34790 ft 464 kts 119°
2026-04-22 22:23 46.54252 -115.27984 34820 ft 461 kts 121°
2026-04-22 22:23 46.51006 -115.20628 34813 ft 460 kts 120°
2026-04-22 22:24 46.47718 -115.13534 34797 ft 460 kts 122°
2026-04-22 22:24 46.44419 -115.06358 34777 ft 460 kts 122°
2026-04-22 22:25 46.41082 -114.99168 34771 ft 461 kts 122°
2026-04-22 22:25 46.37715 -114.91935 34769 ft 461 kts 121°
2026-04-22 22:26 46.34367 -114.84734 34758 ft 462 kts 121°
2026-04-22 22:26 46.31010 -114.77505 34736 ft 463 kts 122°
2026-04-22 22:27 46.27632 -114.70224 34682 ft 462 kts 122°
2026-04-22 22:27 46.24115 -114.62596 34676 ft 462 kts 123°
2026-04-22 22:28 46.20604 -114.54973 34670 ft 462 kts 122°
2026-04-22 22:28 46.17068 -114.47345 34675 ft 462 kts 120°
2026-04-22 22:29 46.13578 -114.39698 34671 ft 463 kts 122°
2026-04-22 22:29 46.10052 -114.32064 34659 ft 464 kts 122°
2026-04-22 22:30 46.06470 -114.24291 34673 ft 464 kts 121°
2026-04-22 22:30 46.02913 -114.16500 34684 ft 465 kts 122°
2026-04-22 22:31 45.99178 -114.08875 34670 ft 465 kts 123°
2026-04-22 22:31 45.95482 -114.01181 34689 ft 466 kts 123°
2026-04-22 22:32 45.91836 -113.93602 34685 ft 465 kts 124°
2026-04-22 22:32 45.88198 -113.86066 34682 ft 466 kts 124°
2026-04-22 22:33 45.84576 -113.78519 34685 ft 466 kts 124°
2026-04-22 22:33 45.81005 -113.71060 34685 ft 468 kts 124°
2026-04-22 22:34 45.77446 -113.63639 34679 ft 467 kts 124°
2026-04-22 22:34 45.73729 -113.55881 34683 ft 467 kts 124°
2026-04-22 22:35 45.70035 -113.48142 34686 ft 467 kts 123°
2026-04-22 22:35 45.66434 -113.40582 34672 ft 467 kts 122°
2026-04-22 22:36 45.63056 -113.33491 34669 ft 467 kts 123°
2026-04-22 22:36 45.59734 -113.26487 34660 ft 468 kts 124°
2026-04-22 22:37 45.56380 -113.19432 34666 ft 469 kts 125°
2026-04-22 22:37 45.52866 -113.12328 34658 ft 468 kts 126°
2026-04-22 22:38 45.49166 -113.04904 34652 ft 469 kts 126°
2026-04-22 22:38 45.45496 -112.97446 34648 ft 469 kts 124°
2026-04-22 22:39 45.41760 -112.89826 34646 ft 469 kts 125°
2026-04-22 22:39 45.37971 -112.82158 34655 ft 470 kts 126°
2026-04-22 22:40 45.34177 -112.74461 34666 ft 471 kts 123°
2026-04-22 22:40 45.30394 -112.66713 34669 ft 471 kts 125°
2026-04-22 22:41 45.26625 -112.59032 34676 ft 471 kts 125°
2026-04-22 22:41 45.22703 -112.51469 34666 ft 470 kts 131°
2026-04-22 22:42 45.18276 -112.44667 34688 ft 471 kts 131°
2026-04-22 22:42 45.13840 -112.37805 34685 ft 473 kts 132°
2026-04-22 22:43 45.09296 -112.30920 34698 ft 473 kts 133°
2026-04-22 22:43 45.04701 -112.23964 34681 ft 472 kts 133°
2026-04-22 22:44 45.00120 -112.17024 34694 ft 474 kts 133°
2026-04-22 22:44 44.95491 -112.09917 34691 ft 475 kts 134°
2026-04-22 22:45 44.90888 -112.02930 34696 ft 475 kts 133°
2026-04-22 22:45 44.86303 -111.95930 34703 ft 473 kts 133°
2026-04-22 22:46 44.81759 -111.88983 34716 ft 473 kts 133°
2026-04-22 22:46 44.77240 -111.82078 34713 ft 473 kts 134°
2026-04-22 22:47 44.72690 -111.75134 34715 ft 473 kts 133°
2026-04-22 22:47 44.68111 -111.68098 34735 ft 475 kts 133°
2026-04-22 22:48 44.63500 -111.61036 34730 ft 475 kts 134°
2026-04-22 22:48 44.58856 -111.54198 34724 ft 474 kts 135°
2026-04-22 22:49 44.54238 -111.47426 34730 ft 474 kts 136°
2026-04-22 22:49 44.49616 -111.40659 34735 ft 476 kts 133°
2026-04-22 22:50 44.45022 -111.33784 34745 ft 477 kts 136°
2026-04-22 22:50 44.40498 -111.27164 34752 ft 478 kts 136°
2026-04-22 22:51 44.36004 -111.20474 34759 ft 479 kts 134°
2026-04-22 22:51 44.31388 -111.13696 34764 ft 479 kts 135°
2026-04-22 22:52 44.26691 -111.06741 34772 ft 479 kts 135°
2026-04-22 22:52 44.22093 -110.99930 34774 ft 479 kts 136°
2026-04-22 22:53 44.17648 -110.93336 34778 ft 480 kts 136°
2026-04-22 22:53 44.13301 -110.86887 34776 ft 480 kts 136°
2026-04-22 22:54 44.08806 -110.80201 34782 ft 480 kts 134°
2026-04-22 22:54 44.04163 -110.73419 34786 ft 480 kts 135°
2026-04-22 22:55 43.99373 -110.66625 34799 ft 481 kts 136°
2026-04-22 22:55 43.92115 -110.56244 34799 ft 481 kts 136°
2026-04-22 22:56 43.87320 -110.49404 34792 ft 480 kts 136°
2026-04-22 22:56 43.82651 -110.42677 34805 ft 480 kts 136°
2026-04-22 22:57 43.77919 -110.35871 34804 ft 480 kts 137°
2026-04-22 22:57 43.73156 -110.29037 34799 ft 480 kts 137°
2026-04-22 22:58 43.68236 -110.22012 34803 ft 480 kts 137°
2026-04-22 22:58 43.63427 -110.15076 34793 ft 479 kts 138°
2026-04-22 22:59 43.58514 -110.08001 34796 ft 481 kts 137°
2026-04-22 22:59 43.53591 -110.00932 34796 ft 481 kts 136°
2026-04-22 23:00 43.48812 -109.93988 34827 ft 481 kts 137°
2026-04-22 23:00 43.43966 -109.87343 34796 ft 481 kts 138°
2026-04-22 23:01 43.39097 -109.80531 34819 ft 481 kts 139°
2026-04-22 23:01 43.34272 -109.73881 34820 ft 482 kts 139°
2026-04-22 23:02 43.29504 -109.67257 34814 ft 480 kts 138°
2026-04-22 23:02 43.24794 -109.60670 34808 ft 480 kts 138°
2026-04-22 23:03 43.20133 -109.54170 34774 ft 480 kts 138°
2026-04-22 23:03 43.15458 -109.47677 34783 ft 482 kts 140°
2026-04-22 23:04 43.10809 -109.41207 34787 ft 482 kts 137°
2026-04-22 23:04 43.06121 -109.34625 34815 ft 483 kts 139°
2026-04-22 23:05 43.01376 -109.28034 34800 ft 482 kts 139°
2026-04-22 23:05 42.96575 -109.21313 34810 ft 480 kts 140°
2026-04-22 23:06 42.91828 -109.14627 34818 ft 481 kts 140°
2026-04-22 23:06 42.86977 -109.08070 34807 ft 481 kts 142°
2026-04-22 23:07 42.82068 -109.01443 34819 ft 481 kts 142°
2026-04-22 23:07 42.77141 -108.94778 34808 ft 480 kts 141°
2026-04-22 23:08 42.72028 -108.87894 34811 ft 479 kts 142°
2026-04-22 23:08 42.66919 -108.80975 34828 ft 481 kts 141°
2026-04-22 23:09 42.61967 -108.74285 34840 ft 481 kts 141°
2026-04-22 23:09 42.57046 -108.67619 34848 ft 482 kts 142°
2026-04-22 23:10 42.52180 -108.61002 34856 ft 482 kts 142°
2026-04-22 23:10 42.47315 -108.54428 34860 ft 481 kts 140°
2026-04-22 23:11 42.42459 -108.47807 34879 ft 482 kts 142°
2026-04-22 23:11 42.37643 -108.41283 34880 ft 483 kts 142°
2026-04-22 23:12 42.32637 -108.34465 34877 ft 483 kts 143°
2026-04-22 23:12 42.27695 -108.27890 34886 ft 483 kts 144°
2026-04-22 23:13 42.22463 -108.21062 34907 ft 483 kts 143°
2026-04-22 23:13 42.17169 -108.14100 34922 ft 486 kts 143°
2026-04-22 23:14 42.11768 -108.06977 34924 ft 486 kts 143°
2026-04-22 23:14 42.06233 -107.99686 34949 ft 489 kts 143°
2026-04-22 23:15 42.00652 -107.92325 34934 ft 489 kts 143°
2026-04-22 23:15 41.95040 -107.84904 34935 ft 489 kts 143°
2026-04-22 23:16 41.89416 -107.77458 34932 ft 486 kts 143°
2026-04-22 23:16 41.83992 -107.70292 34958 ft 488 kts 143°
2026-04-22 23:17 41.78545 -107.62916 34941 ft 491 kts 140°
2026-04-22 23:17 41.73237 -107.55083 34961 ft 491 kts 140°
2026-04-22 23:18 41.68316 -107.47767 34964 ft 490 kts 141°
2026-04-22 23:18 41.63728 -107.40919 34945 ft 493 kts 140°
2026-04-22 23:19 41.59044 -107.33894 34958 ft 493 kts 141°
2026-04-22 23:19 41.54127 -107.26595 34966 ft 492 kts 141°
2026-04-22 23:20 41.49128 -107.19082 34968 ft 494 kts 141°
2026-04-22 23:20 41.46629 -107.15334 34815 ft 493 kts 141°
2026-04-22 23:20 41.44018 -107.11450 34888 ft 492 kts 140°
2026-04-22 23:21 41.38660 -107.03781 34925 ft 492 kts 142°
2026-04-22 23:21 41.33226 -106.96038 34946 ft 494 kts 142°
2026-04-22 23:22 41.27905 -106.88309 34978 ft 493 kts 142°
2026-04-22 23:22 41.22607 -106.80647 35002 ft 490 kts 142°
2026-04-22 23:23 41.17460 -106.73183 35020 ft 491 kts 141°
2026-04-22 23:23 41.12647 -106.66180 35016 ft 493 kts 140°
2026-04-22 23:24 41.07937 -106.59325 34713 ft 495 kts 141°
2026-04-22 23:24 41.05569 -106.55887 34168 ft 496 kts 142°
2026-04-22 23:24 41.03185 -106.52419 33483 ft 497 kts 141°
2026-04-22 23:25 41.00822 -106.48944 32782 ft 495 kts 141°
2026-04-22 23:25 40.98411 -106.45476 32080 ft 493 kts 141°
2026-04-22 23:25 40.96005 -106.41983 31407 ft 496 kts 141°
2026-04-22 23:25 40.93526 -106.38316 30727 ft 498 kts 141°
2026-04-22 23:26 40.91054 -106.34734 30031 ft 502 kts 141°
2026-04-22 23:26 40.88538 -106.31051 29696 ft 493 kts 141°
2026-04-22 23:26 40.86123 -106.27448 29583 ft 479 kts 138°
2026-04-22 23:26 40.84009 -106.23569 29475 ft 476 kts 130°
2026-04-22 23:27 40.82311 -106.19393 28638 ft 480 kts 123°
2026-04-22 23:27 40.80811 -106.14990 27769 ft 475 kts 121°
2026-04-22 23:27 40.79356 -106.10634 26910 ft 467 kts 123°
2026-04-22 23:27 40.77841 -106.06288 26033 ft 459 kts 123°
2026-04-22 23:28 40.76352 -106.02100 25647 ft 446 kts 123°
2026-04-22 23:28 40.74989 -105.98309 25647 ft 443 kts 122°
2026-04-22 23:28 40.73619 -105.94468 25546 ft 443 kts 123°
2026-04-22 23:28 40.72271 -105.90676 25061 ft 443 kts 124°
2026-04-22 23:29 40.70903 -105.86911 24692 ft 439 kts 123°
2026-04-22 23:29 40.69549 -105.83230 24267 ft 434 kts 124°
2026-04-22 23:29 40.68206 -105.79569 23952 ft 432 kts 123°
2026-04-22 23:29 40.66891 -105.75889 23690 ft 431 kts 122°
2026-04-22 23:30 40.65593 -105.72200 23318 ft 427 kts 122°
2026-04-22 23:30 40.64309 -105.68529 22921 ft 418 kts 122°
2026-04-22 23:30 40.63034 -105.64996 22592 ft 412 kts 124°
2026-04-22 23:30 40.61718 -105.61464 22139 ft 408 kts 123°
2026-04-22 23:31 40.60384 -105.57848 21821 ft 404 kts 121°
2026-04-22 23:31 40.59124 -105.54404 21566 ft 405 kts 122°
2026-04-22 23:31 40.57889 -105.50925 21264 ft 404 kts 123°
2026-04-22 23:31 40.56653 -105.47488 20892 ft 405 kts 122°
2026-04-22 23:32 40.55389 -105.43990 20494 ft 402 kts 121°
2026-04-22 23:32 40.54171 -105.40536 20356 ft 395 kts 122°
2026-04-22 23:32 40.52881 -105.37088 19771 ft 396 kts 122°
2026-04-22 23:32 40.51594 -105.33645 19129 ft 397 kts 123°
2026-04-22 23:33 40.50335 -105.30209 18355 ft 395 kts 122°
2026-04-22 23:33 40.49137 -105.26887 17680 ft 386 kts 122°
2026-04-22 23:33 40.47992 -105.23723 17398 ft 371 kts 123°
2026-04-22 23:33 40.46865 -105.20653 17468 ft 352 kts 122°
2026-04-22 23:34 40.45866 -105.17721 17483 ft 345 kts 117°
2026-04-22 23:34 40.45045 -105.14647 17057 ft 345 kts 112°
2026-04-22 23:34 40.44310 -105.11486 16388 ft 344 kts 112°
2026-04-22 23:34 40.43598 -105.08347 15773 ft 341 kts 111°
2026-04-22 23:35 40.42867 -105.05181 15219 ft 337 kts 113°
2026-04-22 23:35 40.42122 -105.02051 14984 ft 329 kts 111°
2026-04-22 23:35 40.41373 -104.98946 14878 ft 329 kts 114°
2026-04-22 23:35 40.40611 -104.95818 14596 ft 329 kts 112°
2026-04-22 23:36 40.39912 -104.92910 14552 ft 315 kts 111°
2026-04-22 23:36 40.39238 -104.90064 14563 ft 302 kts 113°
2026-04-22 23:36 40.38602 -104.87424 14427 ft 291 kts 111°
2026-04-22 23:36 40.37988 -104.84882 14017 ft 287 kts 113°
2026-04-22 23:37 40.37390 -104.82385 13804 ft 277 kts 113°
2026-04-22 23:37 40.36816 -104.79955 13686 ft 275 kts 113°
2026-04-22 23:37 40.36235 -104.77501 13436 ft 276 kts 112°
2026-04-22 23:37 40.35465 -104.75147 13178 ft 267 kts 129°
2026-04-22 23:38 40.34208 -104.73283 12856 ft 261 kts 146°
2026-04-22 23:38 40.32647 -104.71825 12392 ft 257 kts 154°
2026-04-22 23:38 40.30997 -104.70517 12039 ft 255 kts 155°
2026-04-22 23:38 40.29324 -104.69476 11714 ft 246 kts 169°
2026-04-22 23:39 40.27483 -104.69063 11541 ft 243 kts 182°
2026-04-22 23:39 40.25575 -104.69038 11220 ft 240 kts 186°
2026-04-22 23:39 40.23759 -104.69131 10960 ft 236 kts 188°
2026-04-22 23:39 40.21988 -104.69219 10671 ft 226 kts 187°
2026-04-22 23:40 40.20315 -104.69265 10464 ft 218 kts 187°
2026-04-22 23:40 40.18678 -104.69297 10274 ft 226 kts 186°
2026-04-22 23:40 40.16924 -104.69315 10230 ft 227 kts 186°
2026-04-22 23:40 40.15049 -104.69327 10029 ft 229 kts 187°
2026-04-22 23:41 40.13246 -104.69339 9738 ft 224 kts 187°
2026-04-22 23:41 40.11450 -104.69357 9469 ft 223 kts 187°
2026-04-22 23:41 40.09639 -104.69378 9248 ft 222 kts 186°
2026-04-22 23:41 40.07805 -104.69402 8729 ft 226 kts 186°
2026-04-22 23:42 40.06030 -104.69418 8255 ft 204 kts 186°
2026-04-22 23:42 40.04433 -104.69434 8000 ft 187 kts 187°
2026-04-22 23:42 40.02935 -104.69451 7725 ft 178 kts 187°
2026-04-22 23:42 40.01506 -104.69468 7467 ft 175 kts 185°
2026-04-22 23:43 40.00114 -104.69486 7212 ft 173 kts 187°
2026-04-22 23:43 39.98703 -104.69506 6994 ft 172 kts 186°
2026-04-22 23:43 39.97275 -104.69527 6704 ft 171 kts 184°
2026-04-22 23:43 39.95872 -104.69535 6491 ft 172 kts 187°
2026-04-22 23:44 39.94483 -104.69559 6188 ft 167 kts 185°
2026-04-22 23:44 39.93125 -104.69580 5975 ft 172 kts 185°
2026-04-22 23:44 39.91746 -104.69595 5761 ft 168 kts 184°
2026-04-22 23:44 39.90379 -104.69579 5500 ft 169 kts 186°
2026-04-22 23:45 39.89055 -104.69621 5355 ft 157 kts 186°
2026-04-22 23:45 39.88037 -104.69638 5315 ft 90 kts 180°
2026-04-22 23:45 39.87603 -104.69636 5301 ft 15 kts 180°
2026-04-22 23:45 39.87519 -104.69579 5305 ft 9 kts 116°
2026-04-22 23:46 39.87508 -104.69531 5307 ft 0 kts 104°
2026-04-22 23:47 39.87503 -104.69508 5308 ft 13 kts 101°
2026-04-22 23:47 39.87366 -104.69366 5316 ft 46 kts 189°
2026-04-22 23:48 39.87058 -104.69418 5310 ft 41 kts 184°
2026-04-22 23:48 39.86891 -104.69429 5306 ft 24 kts 182°
2026-04-22 23:48 39.86784 -104.69432 5302 ft 27 kts 180°
2026-04-22 23:48 39.86712 -104.69433 5299 ft 6 kts 179°
2026-04-22 23:49 39.86643 -104.69430 5297 ft 10 kts 178°
2026-04-22 23:49 39.86561 -104.69427 5294 ft 9 kts 174°
2026-04-22 23:49 39.86477 -104.69395 5293 ft 11 kts 153°
2026-04-22 23:49 39.86397 -104.69337 5295 ft 11 kts 149°
2026-04-22 23:50 39.86313 -104.69273 5296 ft 12 kts 151°
2026-04-22 23:50 39.86225 -104.69212 5299 ft 12 kts 152°
2026-04-22 23:50 39.86141 -104.69151 5301 ft 12 kts 149°
2026-04-22 23:50 39.86067 -104.69091 5305 ft 11 kts 139°
2026-04-22 23:51 39.86035 -104.69000 5310 ft 10 kts 94°
2026-04-22 23:51 39.86035 -104.68896 5315 ft 12 kts 89°
2026-04-22 23:51 39.86033 -104.68729 5324 ft 23 kts 91°
2026-04-22 23:51 39.86029 -104.68499 5336 ft 17 kts 89°
2026-04-22 23:52 39.86030 -104.68357 5344 ft 12 kts 90°
2026-04-22 23:52 39.86029 -104.68269 5349 ft 7 kts 90°
2026-04-22 23:52 39.86048 -104.68162 5354 ft 18 kts 66°
2026-04-22 23:52 39.86068 -104.67940 5368 ft 25 kts 91°
2026-04-22 23:53 39.86067 -104.67674 5383 ft 27 kts 89°
2026-04-22 23:53 39.86065 -104.67383 5400 ft 30 kts 91°
2026-04-22 23:53 39.86061 -104.67072 5415 ft 33 kts 90°
2026-04-22 23:53 39.86058 -104.66734 5426 ft 30 kts 91°
2026-04-22 23:54 39.86031 -104.66544 5428 ft 20 kts 115°
2026-04-22 23:54 39.86014 -104.66335 5429 ft 9 kts 89°
2026-04-22 23:54 39.86010 -104.66287 5428 ft 12 kts 110°
2026-04-22 23:54 39.85902 -104.66233 5429 ft 16 kts 180°
2026-04-22 23:55 39.85776 -104.66235 5431 ft 15 kts 180°
2026-04-22 23:55 39.85646 -104.66238 5431 ft 18 kts 181°
2026-04-22 23:55 39.85482 -104.66238 5426 ft 23 kts 180°
2026-04-22 23:55 39.85274 -104.66241 5421 ft 27 kts 180°
2026-04-22 23:56 39.85049 -104.66246 5413 ft 30 kts 180°
2026-04-22 23:56 39.84799 -104.66248 5405 ft 25 kts 180°
2026-04-22 23:56 39.84611 -104.66248 5402 ft 24 kts 180°
2026-04-22 23:56 39.84410 -104.66253 5400 ft 25 kts 180°
2026-04-22 23:57 39.84214 -104.66254 5403 ft 23 kts 180°
2026-04-22 23:57 39.84038 -104.66257 5407 ft 20 kts 180°
2026-04-22 23:57 39.83886 -104.66259 5410 ft 19 kts 180°
2026-04-22 23:57 39.83735 -104.66260 5410 ft 19 kts 180°
2026-04-22 23:58 39.83584 -104.66262 5410 ft 19 kts 180°
2026-04-22 23:58 39.83429 -104.66263 5411 ft 19 kts 180°
2026-04-22 23:58 39.83291 -104.66264 5416 ft 16 kts 180°
2026-04-22 23:58 39.83163 -104.66266 5419 ft 17 kts 180°
2026-04-22 23:59 39.83020 -104.66267 5420 ft 13 kts 180°
2026-04-22 23:59 39.82943 -104.66306 5421 ft 11 kts 244°
2026-04-22 23:59 39.82935 -104.66429 5419 ft 13 kts 269°
2026-04-22 23:59 39.82935 -104.66581 5413 ft 18 kts 270°
2026-04-23 00:00 39.82937 -104.67036 5400 ft 17 kts 270°
2026-04-23 00:00 39.82950 -104.67146 5400 ft 17 kts 290°
2026-04-23 00:00 39.83003 -104.67291 5397 ft 5 kts 289°
2026-04-23 00:01 39.83018 -104.67324 5397 ft 4 kts 317°
2026-04-23 00:01 39.83069 -104.67339 5394 ft 9 kts 357°
2026-04-23 00:01 39.83090 -104.67340 5393 ft 0 kts 359°